Weather History for Luverne, MN

Change the Weather History Date:

Sunday, March 30, 2014

  Actual Average (KFSD) Record (KFSD)
Temperature  
Mean Temperature 52 °F 39 °F  
Max Temperature 68 °F 50 °F 88 °F (1943)
Min Temperature 35 °F 28 °F -5 °F (1969)
Degree Days  
Heating Degree Days 14 26  
Month to date heating degree days 969  
Since 1 July heating degree days 6819  
Cooling Degree Days 0 0  
Month to date cooling degree days 0  
Year to date cooling degree days 0  
Growing Degree Days 2 (Base 50)    
Moisture  
Dew Point 34 °F    
Average Humidity 58    
Maximum Humidity 87    
Minimum Humidity 30    
Precipitation  
Precipitation 0.00 in 0.09 in 1.39 in (1949)
Month to date precipitation 1.67  
Year to date precipitation 2.83  
Snow  
Snow 0.00 in 0.30 in 8.90 in (1949)
Month to date snowfall 8.2  
Since 1 July snowfall 39.7  
Snow Depth -    
Sea Level Pressure  
Sea Level Pressure 29.77 in    
Wind  
Wind Speed 10 mph (South)    
Max Wind Speed 18 mph    
Max Gust Speed 22 mph    
Visibility 9 miles    
Events      
T = Trace of Precipitation, MM = Missing Value Source: NWS Daily Summary

Daily Weather History Graph

Daily Weather History Graph

Search for Another Location

Airport:

Trip Planner

Search our weather history database for the weather conditions in past years. The results will help you decide how hot, cold, wet, or windy it might be!

Date:

Astronomy

Mar. 30, 2014 Rise Set
Actual Time 7:09 AM CDT 7:49 PM CDT
Civil Twilight 6:41 AM CDT 8:18 PM CDT
Nautical Twilight 6:06 AM CDT 8:52 PM CDT
Astronomical Twilight 5:31 AM CDT 9:28 PM CDT
Moon 6:56 AM CDT (3/30) 8:04 PM CDT (3/30)
Length of Visible Light 13h 37m
Length of Day
12h 39m
Waning Crescent, 0% of the Moon is Illuminated
Mar 30
Waning Crescent
Mar 30
New
Apr 7
First Quarter
Apr 15
Full
Apr 22
Last Quarter

Hourly Weather History & Observations

Time (CDT) Temp. Windchill Dew Point Humidity Pressure Visibility Wind Dir Wind Speed Gust Speed Precip Events Conditions
12:15 AM 41.0 °F 33.9 °F 30.2 °F 65% 29.91 in 10.0 mi South 12.7 mph - N/A   Clear
12:35 AM 39.2 °F 32.0 °F 30.2 °F 70% 29.91 in 10.0 mi South 11.5 mph - N/A   Clear
12:55 AM 39.2 °F 32.0 °F 30.2 °F 70% 29.90 in 10.0 mi South 11.5 mph - N/A   Clear
1:15 AM 37.4 °F 29.8 °F 30.2 °F 75% 29.90 in 10.0 mi South 11.5 mph - N/A   Clear
1:34 AM 37.4 °F 30.3 °F 30.2 °F 75% 29.89 in 10.0 mi South 10.4 mph - N/A   Clear
1:55 AM 37.4 °F 29.8 °F 30.2 °F 75% 29.88 in 10.0 mi South 11.5 mph - N/A   Clear
2:15 AM 37.4 °F 30.3 °F 30.2 °F 75% 29.87 in 10.0 mi South 10.4 mph - N/A   Clear
2:35 AM 37.4 °F 29.3 °F 32.0 °F 81% 29.87 in 10.0 mi South 12.7 mph - N/A   Clear
2:55 AM 41.0 °F 33.1 °F 32.0 °F 70% 29.86 in 7.0 mi South 15.0 mph - N/A   Clear
3:15 AM 41.0 °F 33.9 °F 32.0 °F 70% 29.85 in 7.0 mi South 12.7 mph - N/A   Clear
3:35 AM 39.2 °F 32.5 °F 32.0 °F 75% 29.85 in 7.0 mi South 10.4 mph - N/A   Clear
3:55 AM 39.2 °F 32.0 °F 32.0 °F 75% 29.84 in 7.0 mi South 11.5 mph - N/A   Clear
4:15 AM 37.4 °F 30.3 °F 32.0 °F 81% 29.83 in 7.0 mi South 10.4 mph - N/A   Clear
4:34 AM 37.4 °F 31.4 °F 32.0 °F 81% 29.83 in 7.0 mi South 8.1 mph - N/A   Clear
4:55 AM 37.4 °F 31.4 °F 32.0 °F 81% 29.83 in 7.0 mi South 8.1 mph - N/A   Clear
5:15 AM 37.4 °F 30.8 °F 32.0 °F 81% 29.83 in 7.0 mi South 9.2 mph - N/A   Clear
5:35 AM 37.4 °F 32.1 °F 32.0 °F 81% 29.82 in 7.0 mi SSE 6.9 mph - N/A   Clear
5:55 AM 37.4 °F 32.8 °F 32.0 °F 81% 29.83 in 7.0 mi SSE 5.8 mph - N/A   Clear
6:14 AM 37.4 °F 31.4 °F 32.0 °F 81% 29.82 in 7.0 mi South 8.1 mph - N/A   Clear
6:35 AM 37.4 °F 29.8 °F 32.0 °F 81% 29.82 in 7.0 mi South 11.5 mph - N/A   Clear
6:55 AM 35.6 °F 29.2 °F 32.0 °F 87% 29.84 in 5.0 mi South 8.1 mph - N/A   Haze
7:14 AM 35.6 °F 28.6 °F 32.0 °F 87% 29.83 in 5.0 mi South 9.2 mph - N/A   Haze
7:35 AM 35.6 °F 29.2 °F 32.0 °F 87% 29.83 in 4.0 mi South 8.1 mph - N/A   Haze
7:55 AM 37.4 °F 33.8 °F 32.0 °F 81% 29.84 in 5.0 mi South 4.6 mph - N/A   Haze
8:15 AM 37.4 °F 31.4 °F 32.0 °F 81% 29.84 in 5.0 mi South 8.1 mph - N/A   Haze
8:35 AM 39.2 °F 34.2 °F 32.0 °F 75% 29.84 in 5.0 mi South 6.9 mph - N/A   Haze
8:55 AM 41.0 °F 34.7 °F 32.0 °F 70% 29.84 in 5.0 mi South 10.4 mph - N/A   Haze
9:15 AM 42.8 °F 38.0 °F 33.8 °F 70% 29.84 in 5.0 mi South 8.1 mph - N/A   Haze
9:34 AM 44.6 °F 37.8 °F 33.8 °F 66% 29.83 in 7.0 mi SSW 15.0 mph - N/A   Clear
9:55 AM 46.4 °F 40.4 °F 33.8 °F 62% 29.82 in 7.0 mi South 13.8 mph - N/A   Clear
10:15 AM 50.0 °F - 33.8 °F 54% 29.83 in 7.0 mi SSW 17.3 mph - N/A   Clear
10:34 AM 51.8 °F - 33.8 °F 50% 29.82 in 10.0 mi SSW 18.4 mph - N/A   Clear
10:55 AM 53.6 °F - 35.6 °F 51% 29.82 in 10.0 mi SSW 13.8 mph - N/A   Clear
11:15 AM 53.6 °F - 33.8 °F 47% 29.81 in 10.0 mi SW 15.0 mph - N/A   Clear
11:34 AM 55.4 °F - 33.8 °F 44% 29.80 in 10.0 mi SSW 16.1 mph 21.9 mph N/A   Clear
11:55 AM 57.2 °F - 33.8 °F 41% 29.80 in 10.0 mi SSW 17.3 mph - N/A   Clear
12:14 PM 59.0 °F - 35.6 °F 42% 29.79 in 10.0 mi SSW 17.3 mph 21.9 mph N/A   Clear
12:35 PM 60.8 °F - 35.6 °F 39% 29.78 in 10.0 mi SSW 15.0 mph 20.7 mph N/A   Clear
12:54 PM 60.8 °F - 35.6 °F 39% 29.78 in 10.0 mi SSW 10.4 mph - N/A   Clear
1:15 PM 62.6 °F - 33.8 °F 34% 29.77 in 10.0 mi South 13.8 mph 18.4 mph N/A   Clear
1:35 PM 62.6 °F - 33.8 °F 34% 29.77 in 10.0 mi SW 12.7 mph 18.4 mph N/A   Clear
1:55 PM 62.6 °F - 33.8 °F 34% 29.78 in 10.0 mi SSW 13.8 mph - N/A   Clear
2:15 PM 62.6 °F - 33.8 °F 34% 29.77 in 10.0 mi SSW 9.2 mph - N/A   Clear
2:35 PM 62.6 °F - 32.0 °F 32% 29.75 in 10.0 mi SSW 8.1 mph - N/A   Clear
2:54 PM 62.6 °F - 33.8 °F 34% 29.75 in 10.0 mi SSW 8.1 mph - N/A   Clear
3:15 PM 64.4 °F - 32.0 °F 30% 29.73 in 10.0 mi South 5.8 mph - N/A   Clear
3:35 PM 64.4 °F - 33.8 °F 32% 29.73 in 10.0 mi South 10.4 mph - N/A   Clear
3:55 PM 68.0 °F - 35.6 °F 30% 29.72 in 10.0 mi SSW 10.4 mph - N/A   Clear
4:15 PM 66.2 °F - 37.4 °F 35% 29.72 in 10.0 mi South 11.5 mph - N/A   Clear
4:35 PM 64.4 °F - 33.8 °F 32% 29.71 in 10.0 mi SSE 10.4 mph - N/A   Clear
4:55 PM 64.4 °F - 33.8 °F 32% 29.71 in 10.0 mi South 6.9 mph - N/A   Clear
5:15 PM 64.4 °F - 35.6 °F 34% 29.70 in 10.0 mi South 10.4 mph 16.1 mph N/A   Clear
5:35 PM 64.4 °F - 33.8 °F 32% 29.69 in 10.0 mi South 9.2 mph - N/A   Clear
5:55 PM 64.4 °F - 35.6 °F 34% 29.68 in 10.0 mi South 8.1 mph - N/A   Clear
6:15 PM 64.4 °F - 35.6 °F 34% 29.68 in 10.0 mi South 5.8 mph - N/A   Clear
6:34 PM 64.4 °F - 37.4 °F 37% 29.68 in 10.0 mi South 4.6 mph - N/A   Clear
6:55 PM 62.6 °F - 35.6 °F 37% 29.67 in 10.0 mi SSE 3.5 mph - N/A   Clear
7:15 PM 60.8 °F - 37.4 °F 42% 29.66 in 10.0 mi ESE 3.5 mph - N/A   Clear
7:35 PM 55.4 °F - 39.2 °F 54% 29.66 in 10.0 mi ESE 3.5 mph - N/A   Clear
7:55 PM 55.4 °F - 37.4 °F 51% 29.67 in 10.0 mi NE 3.5 mph - N/A   Clear
8:15 PM 55.4 °F - 37.4 °F 51% 29.67 in 10.0 mi NE 4.6 mph - N/A   Clear
8:35 PM 53.6 °F - 41.0 °F 62% 29.67 in 10.0 mi NNE 3.5 mph - N/A   Clear
8:55 PM 50.0 °F - 39.2 °F 66% 29.66 in 10.0 mi NE 8.1 mph - N/A   Clear
9:15 PM 50.0 °F - 39.2 °F 66% 29.66 in 10.0 mi NE 3.5 mph - N/A   Clear
9:35 PM 50.0 °F - 37.4 °F 62% 29.66 in 10.0 mi NE 3.5 mph - N/A   Clear
9:54 PM 50.0 °F - 37.4 °F 62% 29.65 in 10.0 mi ENE 3.5 mph - N/A   Clear
10:15 PM 50.0 °F - 35.6 °F 58% 29.65 in 10.0 mi East 3.5 mph - N/A   Clear
10:35 PM 48.2 °F - 35.6 °F 62% 29.64 in 10.0 mi East 3.5 mph - N/A   Clear
10:54 PM 50.0 °F - 35.6 °F 58% 29.63 in 10.0 mi Calm Calm - N/A   Clear
11:15 PM 50.0 °F - 35.6 °F 58% 29.62 in 10.0 mi Calm Calm - N/A   Clear
11:34 PM 50.0 °F - 35.6 °F 58% 29.61 in 10.0 mi SSE 4.6 mph - N/A   Clear
11:55 PM 51.8 °F - 35.6 °F 54% 29.61 in 10.0 mi SSE 9.2 mph - N/A   Clear